Regional Weather Roundup
Issued by NWS

Home | Current Version | Previous Version | Text Only | Print | Product List | Glossary On
Versions: 1 2 3 4 5 6 7 8 9 10 11 12 13 14 15 16 17 18 19 20 21 22 23 24 25 26 27 28
000
ASUS44 KLIX 191513
RWRLA
LOUISIANA WEATHER ROUNDUP
NATIONAL WEATHER SERVICE NEW ORLEANS LA
1000 AM CDT THU OCT 19 2017

NOTE: "FAIR" INDICATES FEW OR NO CLOUDS BELOW 12,000 FEET WITH NO
      SIGNIFICANT WEATHER AND/OR OBSTRUCTIONS TO VISIBILITY.
      SKY/WX - SKY CONDITION AND SIGNIFICANT WEATHER.
      TMP - AIR TEMPERATURE.    DP   - DEWPOINT TEMPERATURE.
      RH  - RELATIVE HUMIDITY.  PRES - PRESSURE.
      HX  - HEAT INDEX.         WCI  - WIND CHILL INDEX.

*  THESE STATIONS ARE NOT NWS OR FAA STATIONS AND ARE NOT UNDER
   NWS QUALITY CONTROL.

LAZ040-048-061>063-065-066-069-191600-
SOUTHEAST LOUISIANA

CITY           SKY/WX    TMP DP  RH WIND       PRES   REMARKS
N.O. INTL ARPT MOSUNNY   74  66  76 NE6       30.19R
N.O. LAKEFRONT SUNNY     73  65  75 NE9       30.20R
N.O. DOWNTOWN* FAIR      74  64  71 E3        30.20R
RESERVE*       FAIR      76  64  65 NE6       30.20R
SLIDELL        MOSUNNY   72  62  71 NE5       30.20R
BATON ROUGE    SUNNY     69  58  67 E8        30.21R
BOOTHVILLE     SUNNY     83  70  64 E12       30.17R
BELLE CHASSE   PTSUNNY   75  64  68 E12       30.16
BOGALUSA*      FAIR      68  58  69 N3        30.24S
GALLIANO*      SUNNY     74  66  76 NE8       30.18R
NEW ROADS*     NOT AVBL
GONZALES*      FAIR      72  60  65 E6        30.20R
HAMMOND*       MOSUNNY   70  55  60 CALM      30.22R
HOUMA*         MOSUNNY   73  66  78 NE9       30.18R
PORT FOURCHON* SUNNY     73  68  83 NE16      30.17S

$$

LAZ041-044-053-054-191600-
SOUTHWEST LOUISIANA

CITY           SKY/WX    TMP DP  RH WIND       PRES   REMARKS
LAKE CHARLES   MOSUNNY   70  62  76 NE8       30.19R
LAFAYETTE      MOSUNNY   69  61  75 VRB6      30.19R
PATTERSON      NOT AVBL
SALT POINT       N/A     73  64  73 CALM      30.16R
NEW IBERIA     MOSUNNY   69  59  70 E10       30.19R
CHENAULT AIRPK SUNNY     72  66  83 E7        30.20R

$$

LAZ027-028-191600-
CENTRAL LOUISIANA

CITY           SKY/WX    TMP DP  RH WIND       PRES   REMARKS
FORT POLK      CLOUDY    69  57  67 SE5       30.21R
ALEXANDRIA INT MOSUNNY   67  58  72 E3        30.21R
ALEXANDRIA     SUNNY     66  57  72 E3        30.23R

$$

LAZ001-002-191600-
NORTHWEST LOUISIANA

CITY           SKY/WX    TMP DP  RH WIND       PRES   REMARKS
SHREVEPORT     MOSUNNY   67  58  72 E3        30.22R
BARKSDALE AFB  SUNNY     65  56  73 SE3       30.23R
DTN SHREVEPORT SUNNY     65  57  75 CALM      30.23R

$$

LAZ014-016-191600-
NORTHEAST LOUISIANA

CITY           SKY/WX    TMP DP  RH WIND       PRES   REMARKS
MONROE         MOSUNNY   67  54  63 CALM      30.26R
TALLULAH       SUNNY     67  56  67 SE7       30.26R

$$





USA.gov is the U.S. government's official web portal to all federal, state and local government web resources and services.